Flag for Belgium Weather past 2 weeks in Brussels, Belgium

Now
53 °F

Cool.


Feels Like: 52 °F
Forecast: 47 / 69 °F
Wind: 5 mph from Northeast

Location: Uccle


UV Index: 3 (Moderate)

Visibility: N/A


Pressure: 29.82 "Hg

Humidity: 72%

Dew point: 44 °F

Location of BrusselsLocation

Historic Weather in Brussels

°F

Brussels temperature yesterday

Maximum temperature yesterday: 60 °F (at 7:00 PM)
Minimum temperature yesterday: 41 °F (at 6:00 AM)
Average temperature yesterday: 51 °F

Past Weeks' High & Low Weather Summary

 TemperatureHumidityPressure
High71 °F (Apr 7, 3:00 PM)93% (Apr 9, 7:00 AM)30.44 "Hg (Apr 9, 7:00 AM)
Low36 °F (Apr 16, 7:00 AM)27% (Apr 17, 4:00 PM)29.75 "Hg (Apr 7, 8:00 PM)
Average52 °F66%30.13 "Hg
* Reported Apr 5 2:00 AM — Apr 20 2:00 AM, Brussels, Weather by CustomWeather, © 2014

Note: Actual official high and low records may vary slightly from our data, if they occured in-between our weather recording intervals... More about our weather records

Advertising

Historic Weather Conditions — Data for Previous 24 hours

 ConditionsComfort  
Time TempWeatherWind HumidityBarometerVisibility
2:00 AM
Apr 20
54 °FCool.5 mph68%29.83 "HgN/A
1:00 AM55 °FCool.6 mph64%29.85 "HgN/A
12:00 AM56 °FCool.6 mph60%29.87 "HgN/A
11:00 PM
Apr 19
56 °FRefreshingly cool.6 mph57%29.88 "HgN/A
10:00 PM57 °FRefreshingly cool.3 mph53%29.89 "HgN/A
9:00 PM57 °FRefreshingly cool.3 mph49%29.90 "HgN/A
8:00 PM59 °FRefreshingly cool.5 mph44%29.89 "HgN/A
7:00 PM60 °FRefreshingly cool.6 mph40%29.90 "HgN/A
6:00 PM60 °FRefreshingly cool.7 mph39%29.92 "HgN/A
5:00 PM59 °FRefreshingly cool.5 mph40%29.94 "HgN/A
4:00 PM59 °FRefreshingly cool.3 mph44%29.96 "HgN/A
3:00 PM55 °FRefreshingly cool.5 mph48%30.00 "HgN/A
2:00 PM54 °FCool.5 mph54%30.02 "HgN/A
1:00 PM53 °FCool.3 mph56%30.04 "HgN/A
12:00 PM51 °FCool.5 mph58%30.05 "HgN/A
11:00 AM49 °FCool.3 mph66%30.04 "HgN/A
10:00 AM46 °FCool.3 mph78%30.05 "HgN/A
9:00 AM43 °FQuite cool.3 mph82%30.04 "HgN/A
8:00 AM43 °FQuite cool.3 mph81%30.03 "HgN/A
7:00 AM42 °FQuite cool.2 mph81%30.03 "HgN/A
6:00 AM41 °FQuite cool.2 mph80%30.02 "HgN/A
5:00 AM43 °FQuite cool.5 mph76%30.03 "HgN/A
4:00 AM44 °FQuite cool.5 mph73%30.03 "HgN/A
3:00 AM45 °FCool.5 mph70%30.04 "HgN/A
Weather by CustomWeather, © 2014

See weather overview